Time,TemperatureF,DewpointF,PressureIn,WindDirection,WindDirectionDegrees,WindSpeedMPH,WindSpeedGustMPH,Humidity,HourlyPrecipIn,Conditions,Clouds,dailyrainin,SoftwareType,DateUTC
2013-05-02 00:03:00,40.0,-99.9,-100.00,North,351,9.0,20.0,-999,-99.99,,,-99.99,,2013-05-02 04:03:00,
2013-05-02 00:12:00,40.0,-99.9,-100.00,North,351,9.0,20.0,-999,-99.99,,,-99.99,,2013-05-02 04:12:00,
2013-05-02 00:23:00,40.0,-99.9,-100.00,North,351,9.0,20.0,-999,-99.99,,,-99.99,,2013-05-02 04:23:00,
2013-05-02 00:33:00,40.0,-99.9,-100.00,North,351,9.0,20.0,-999,-99.99,,,-99.99,,2013-05-02 04:33:00,
2013-05-02 00:40:00,39.0,-99.9,-100.00,North,357,11.0,21.0,-999,-99.99,,,-99.99,,2013-05-02 04:40:00,
2013-05-02 01:02:00,39.0,-99.9,-100.00,North,357,11.0,21.0,-999,-99.99,,,-99.99,,2013-05-02 05:02:00,
2013-05-02 01:12:00,39.0,-99.9,-100.00,North,357,11.0,21.0,-999,-99.99,,,-99.99,,2013-05-02 05:12:00,
2013-05-02 01:22:00,39.0,-99.9,-100.00,North,357,11.0,21.0,-999,-99.99,,,-99.99,,2013-05-02 05:22:00,
2013-05-02 01:32:00,39.0,-99.9,-100.00,North,357,11.0,21.0,-999,-99.99,,,-99.99,,2013-05-02 05:32:00,
2013-05-02 01:40:00,38.0,-99.9,-100.00,NNE,14,12.0,20.0,-999,-99.99,,,-99.99,,2013-05-02 05:40:00,
2013-05-02 02:02:00,38.0,-99.9,-100.00,NNE,14,12.0,20.0,-999,-99.99,,,-99.99,,2013-05-02 06:02:00,
2013-05-02 02:12:00,38.0,-99.9,-100.00,NNE,14,12.0,20.0,-999,-99.99,,,-99.99,,2013-05-02 06:12:00,
2013-05-02 02:22:00,38.0,-99.9,-100.00,NNE,14,12.0,20.0,-999,-99.99,,,-99.99,,2013-05-02 06:22:00,
2013-05-02 02:32:00,38.0,-99.9,-100.00,NNE,14,12.0,20.0,-999,-99.99,,,-99.99,,2013-05-02 06:32:00,
2013-05-02 02:40:00,38.0,-99.9,-100.00,North,5,10.0,18.0,-999,-99.99,,,-99.99,,2013-05-02 06:40:00,
2013-05-02 03:02:00,38.0,-99.9,-100.00,North,5,10.0,18.0,-999,-99.99,,,-99.99,,2013-05-02 07:02:00,
2013-05-02 03:11:00,38.0,-99.9,-100.00,North,5,10.0,18.0,-999,-99.99,,,-99.99,,2013-05-02 07:11:00,
2013-05-02 03:22:00,38.0,-99.9,-100.00,North,5,10.0,18.0,-999,-99.99,,,-99.99,,2013-05-02 07:22:00,
2013-05-02 03:32:00,38.0,-99.9,-100.00,North,5,10.0,18.0,-999,-99.99,,,-99.99,,2013-05-02 07:32:00,
2013-05-02 03:40:00,38.0,-99.9,-100.00,North,359,7.0,20.0,-999,-99.99,,,-99.99,,2013-05-02 07:40:00,
2013-05-02 04:02:00,38.0,-99.9,-100.00,North,359,7.0,20.0,-999,-99.99,,,-99.99,,2013-05-02 08:02:00,
2013-05-02 04:12:00,38.0,-99.9,-100.00,North,359,7.0,20.0,-999,-99.99,,,-99.99,,2013-05-02 08:12:00,
2013-05-02 04:22:00,38.0,-99.9,-100.00,North,359,7.0,20.0,-999,-99.99,,,-99.99,,2013-05-02 08:22:00,
2013-05-02 04:32:00,38.0,-99.9,-100.00,North,359,7.0,20.0,-999,-99.99,,,-99.99,,2013-05-02 08:32:00,
2013-05-02 04:40:00,38.0,-99.9,-100.00,North,5,11.0,23.0,-999,-99.99,,,-99.99,,2013-05-02 08:40:00,
2013-05-02 05:02:00,38.0,-99.9,-100.00,North,5,11.0,23.0,-999,-99.99,,,-99.99,,2013-05-02 09:02:00,
2013-05-02 05:12:00,38.0,-99.9,-100.00,North,5,11.0,23.0,-999,-99.99,,,-99.99,,2013-05-02 09:12:00,
2013-05-02 05:22:00,38.0,-99.9,-100.00,North,5,11.0,23.0,-999,-99.99,,,-99.99,,2013-05-02 09:22:00,
2013-05-02 05:33:00,38.0,-99.9,-100.00,North,5,11.0,23.0,-999,-99.99,,,-99.99,,2013-05-02 09:33:00,
2013-05-02 05:40:00,38.0,-99.9,-100.00,North,5,10.0,18.0,-999,-99.99,,,-99.99,,2013-05-02 09:40:00,
2013-05-02 06:03:00,38.0,-99.9,-100.00,North,5,10.0,18.0,-999,-99.99,,,-99.99,,2013-05-02 10:03:00,
2013-05-02 06:13:00,38.0,-99.9,-100.00,North,5,10.0,18.0,-999,-99.99,,,-99.99,,2013-05-02 10:13:00,
2013-05-02 06:23:00,38.0,-99.9,-100.00,North,5,10.0,18.0,-999,-99.99,,,-99.99,,2013-05-02 10:23:00,
2013-05-02 06:33:00,38.0,-99.9,-100.00,North,5,10.0,18.0,-999,-99.99,,,-99.99,,2013-05-02 10:33:00,
2013-05-02 06:40:00,39.0,-99.9,-100.00,North,358,12.0,23.0,-999,-99.99,,,-99.99,,2013-05-02 10:40:00,
2013-05-02 07:02:00,39.0,-99.9,-100.00,North,358,12.0,23.0,-999,-99.99,,,-99.99,,2013-05-02 11:02:00,
2013-05-02 07:12:00,39.0,-99.9,-100.00,North,358,12.0,23.0,-999,-99.99,,,-99.99,,2013-05-02 11:12:00,
2013-05-02 07:22:00,39.0,-99.9,-100.00,North,358,12.0,23.0,-999,-99.99,,,-99.99,,2013-05-02 11:22:00,
2013-05-02 07:32:00,39.0,-99.9,-100.00,North,358,12.0,23.0,-999,-99.99,,,-99.99,,2013-05-02 11:32:00,
2013-05-02 07:52:00,39.0,-99.9,-100.00,North,4,15.0,27.0,-999,-99.99,,,-99.99,,2013-05-02 11:52:00,
2013-05-02 08:02:00,39.0,-99.9,-100.00,North,356,10.0,25.0,-999,-99.99,,,-99.99,,2013-05-02 12:02:00,
2013-05-02 08:12:00,39.0,-99.9,-100.00,North,356,10.0,25.0,-999,-99.99,,,-99.99,,2013-05-02 12:12:00,
2013-05-02 08:22:00,39.0,-99.9,-100.00,North,356,10.0,25.0,-999,-99.99,,,-99.99,,2013-05-02 12:22:00,
2013-05-02 08:32:00,39.0,-99.9,-100.00,North,4,15.0,27.0,-999,-99.99,,,-99.99,,2013-05-02 12:32:00,
2013-05-02 08:42:00,39.0,-99.9,-100.00,North,4,15.0,27.0,-999,-99.99,,,-99.99,,2013-05-02 12:42:00,
2013-05-02 08:52:00,39.0,-99.9,-100.00,North,4,15.0,27.0,-999,-99.99,,,-99.99,,2013-05-02 12:52:00,
2013-05-02 09:01:00,41.0,-99.9,-100.00,North,2,9.0,27.0,-999,-99.99,,,-99.99,,2013-05-02 13:01:00,
2013-05-02 09:11:00,41.0,-99.9,-100.00,North,2,9.0,27.0,-999,-99.99,,,-99.99,,2013-05-02 13:11:00,
2013-05-02 09:22:00,41.0,-99.9,-100.00,North,2,9.0,27.0,-999,-99.99,,,-99.99,,2013-05-02 13:22:00,
2013-05-02 09:32:00,41.0,-99.9,-100.00,North,2,9.0,27.0,-999,-99.99,,,-99.99,,2013-05-02 13:32:00,
2013-05-02 09:40:00,43.0,-99.9,-100.00,North,7,16.0,26.0,-999,-99.99,,,-99.99,,2013-05-02 13:40:00,
2013-05-02 09:42:00,41.0,-99.9,-100.00,North,2,9.0,27.0,-999,-99.99,,,-99.99,,2013-05-02 13:42:00,
2013-05-02 09:52:00,41.0,-99.9,-100.00,North,2,9.0,27.0,-999,-99.99,,,-99.99,,2013-05-02 13:52:00,
2013-05-02 10:02:00,43.0,-99.9,-100.00,North,7,16.0,26.0,-999,-99.99,,,-99.99,,2013-05-02 14:02:00,
2013-05-02 10:11:00,43.0,-99.9,-100.00,North,7,16.0,26.0,-999,-99.99,,,-99.99,,2013-05-02 14:11:00,
2013-05-02 10:22:00,43.0,-99.9,-100.00,North,7,16.0,26.0,-999,-99.99,,,-99.99,,2013-05-02 14:22:00,
2013-05-02 10:32:00,43.0,-99.9,-100.00,North,7,16.0,26.0,-999,-99.99,,,-99.99,,2013-05-02 14:32:00,
2013-05-02 10:40:00,47.0,-99.9,-100.00,North,352,14.0,23.0,-999,-99.99,,,-99.99,,2013-05-02 14:40:00,
2013-05-02 11:02:00,47.0,-99.9,-100.00,North,352,14.0,23.0,-999,-99.99,,,-99.99,,2013-05-02 15:02:00,
2013-05-02 11:12:00,47.0,-99.9,-100.00,North,352,14.0,23.0,-999,-99.99,,,-99.99,,2013-05-02 15:12:00,
2013-05-02 11:22:00,47.0,-99.9,-100.00,North,352,14.0,23.0,-999,-99.99,,,-99.99,,2013-05-02 15:22:00,
2013-05-02 11:33:00,47.0,-99.9,-100.00,North,352,14.0,23.0,-999,-99.99,,,-99.99,,2013-05-02 15:33:00,
2013-05-02 12:03:00,48.0,-99.9,-100.00,North,4,10.0,27.0,-999,-99.99,,,-99.99,,2013-05-02 16:03:00,
2013-05-02 12:13:00,49.0,-99.9,-100.00,North,355,15.0,22.0,-999,-99.99,,,-99.99,,2013-05-02 16:13:00,
2013-05-02 12:23:00,49.0,-99.9,-100.00,North,355,15.0,22.0,-999,-99.99,,,-99.99,,2013-05-02 16:23:00,
2013-05-02 12:32:00,48.0,-99.9,-100.00,North,4,10.0,27.0,-999,-99.99,,,-99.99,,2013-05-02 16:32:00,
2013-05-02 12:40:00,50.0,-99.9,-100.00,NNW,339,14.0,21.0,-999,-99.99,,,-99.99,,2013-05-02 16:40:00,
2013-05-02 12:43:00,48.0,-99.9,-100.00,North,4,10.0,27.0,-999,-99.99,,,-99.99,,2013-05-02 16:43:00,
2013-05-02 12:52:00,48.0,-99.9,-100.00,North,4,10.0,27.0,-999,-99.99,,,-99.99,,2013-05-02 16:52:00,
2013-05-02 13:02:00,50.0,-99.9,-100.00,NNW,339,14.0,21.0,-999,-99.99,,,-99.99,,2013-05-02 17:02:00,
2013-05-02 13:12:00,50.0,-99.9,-100.00,NNW,339,14.0,21.0,-999,-99.99,,,-99.99,,2013-05-02 17:12:00,
2013-05-02 13:22:00,50.0,-99.9,-100.00,NNW,339,14.0,21.0,-999,-99.99,,,-99.99,,2013-05-02 17:22:00,
2013-05-02 13:32:00,50.0,-99.9,-100.00,NNW,339,14.0,21.0,-999,-99.99,,,-99.99,,2013-05-02 17:32:00,
2013-05-02 13:40:00,49.0,-99.9,-100.00,NNW,343,15.0,22.0,-999,-99.99,,,-99.99,,2013-05-02 17:40:00,
2013-05-02 14:02:00,49.0,-99.9,-100.00,NNW,343,15.0,22.0,-999,-99.99,,,-99.99,,2013-05-02 18:02:00,
2013-05-02 14:12:00,49.0,-99.9,-100.00,NNW,343,15.0,22.0,-999,-99.99,,,-99.99,,2013-05-02 18:12:00,
2013-05-02 14:22:00,49.0,-99.9,-100.00,NNW,343,15.0,22.0,-999,-99.99,,,-99.99,,2013-05-02 18:22:00,
2013-05-02 14:32:00,49.0,-99.9,-100.00,NNW,343,15.0,22.0,-999,-99.99,,,-99.99,,2013-05-02 18:32:00,
2013-05-02 14:40:00,49.0,-99.9,-100.00,NNW,339,13.0,25.0,-999,-99.99,,,-99.99,,2013-05-02 18:40:00,
2013-05-02 15:01:00,49.0,-99.9,-100.00,NNW,339,13.0,25.0,-999,-99.99,,,-99.99,,2013-05-02 19:01:00,
2013-05-02 15:11:00,49.0,-99.9,-100.00,NNW,339,13.0,25.0,-999,-99.99,,,-99.99,,2013-05-02 19:11:00,
2013-05-02 15:22:00,49.0,-99.9,-100.00,NNW,339,13.0,25.0,-999,-99.99,,,-99.99,,2013-05-02 19:22:00,
2013-05-02 15:32:00,49.0,-99.9,-100.00,NNW,339,13.0,25.0,-999,-99.99,,,-99.99,,2013-05-02 19:32:00,
2013-05-02 15:52:00,47.0,-99.9,-100.00,North,353,11.0,26.0,-999,-99.99,,,-99.99,,2013-05-02 19:52:00,
2013-05-02 16:02:00,46.0,-99.9,-100.00,North,354,15.0,25.0,-999,-99.99,,,-99.99,,2013-05-02 20:02:00,
2013-05-02 16:12:00,46.0,-99.9,-100.00,North,354,15.0,25.0,-999,-99.99,,,-99.99,,2013-05-02 20:12:00,
2013-05-02 16:22:00,47.0,-99.9,-100.00,North,353,11.0,26.0,-999,-99.99,,,-99.99,,2013-05-02 20:22:00,
2013-05-02 16:32:00,47.0,-99.9,-100.00,North,353,11.0,26.0,-999,-99.99,,,-99.99,,2013-05-02 20:32:00,
2013-05-02 16:42:00,47.0,-99.9,-100.00,North,353,11.0,26.0,-999,-99.99,,,-99.99,,2013-05-02 20:42:00,
2013-05-02 16:52:00,44.0,-99.9,-100.00,North,351,14.0,26.0,-999,-99.99,,,-99.99,,2013-05-02 20:52:00,
2013-05-02 17:01:00,42.0,-99.9,-100.00,North,349,17.0,31.0,-999,-99.99,,,-99.99,,2013-05-02 21:01:00,
2013-05-02 17:12:00,42.0,-99.9,-100.00,North,349,17.0,31.0,-999,-99.99,,,-99.99,,2013-05-02 21:12:00,
2013-05-02 17:22:00,43.0,-99.9,-100.00,North,354,18.0,31.0,-999,-99.99,,,-99.99,,2013-05-02 21:22:00,
2013-05-02 17:33:00,43.0,-99.9,-100.00,North,354,18.0,31.0,-999,-99.99,,,-99.99,,2013-05-02 21:33:00,
2013-05-02 17:43:00,41.0,-99.9,-100.00,North,349,13.0,0.0,-999,-99.99,,,-99.99,,2013-05-02 21:43:00,
2013-05-02 17:53:00,41.0,-99.9,-100.00,North,349,13.0,0.0,-999,-99.99,,,-99.99,,2013-05-02 21:53:00,
2013-05-02 18:03:00,40.0,-99.9,-100.00,North,355,14.0,28.0,-999,-99.99,,,-99.99,,2013-05-02 22:03:00,
2013-05-02 18:13:00,40.0,-99.9,-100.00,North,355,14.0,28.0,-999,-99.99,,,-99.99,,2013-05-02 22:13:00,
2013-05-02 18:22:00,40.0,-99.9,-100.00,North,355,14.0,28.0,-999,-99.99,,,-99.99,,2013-05-02 22:22:00,
2013-05-02 18:33:00,40.0,-99.9,-100.00,North,355,14.0,29.0,-999,-99.99,,,-99.99,,2013-05-02 22:33:00,
2013-05-02 18:43:00,40.0,-99.9,-100.00,North,355,14.0,29.0,-999,-99.99,,,-99.99,,2013-05-02 22:43:00,
2013-05-02 18:53:00,38.0,-99.9,-100.00,NNW,337,14.0,0.0,-999,-99.99,,,-99.99,,2013-05-02 22:53:00,
2013-05-02 19:02:00,38.0,-99.9,-100.00,NNW,328,14.0,20.0,-999,-99.99,,,-99.99,,2013-05-02 23:02:00,
2013-05-02 19:12:00,38.0,-99.9,-100.00,NNW,328,14.0,20.0,-999,-99.99,,,-99.99,,2013-05-02 23:12:00,
2013-05-02 19:22:00,38.0,-99.9,-100.00,NNW,328,14.0,20.0,-999,-99.99,,,-99.99,,2013-05-02 23:22:00,
2013-05-02 19:32:00,38.0,-99.9,-100.00,NNW,337,14.0,0.0,-999,-99.99,,,-99.99,,2013-05-02 23:32:00,
2013-05-02 19:42:00,37.0,-99.9,-100.00,NNW,347,15.0,28.0,-999,-99.99,,,-99.99,,2013-05-02 23:42:00,
2013-05-02 19:52:00,37.0,-99.9,-100.00,North,355,12.0,29.0,-999,-99.99,,,-99.99,,2013-05-02 23:52:00,
2013-05-02 20:02:00,36.0,-99.9,-100.00,North,356,13.0,29.0,-999,-99.99,,,-99.99,,2013-05-03 00:02:00,
2013-05-02 20:12:00,36.0,-99.9,-100.00,North,356,13.0,29.0,-999,-99.99,,,-99.99,,2013-05-03 00:12:00,
2013-05-02 20:22:00,37.0,-99.9,-100.00,North,355,12.0,29.0,-999,-99.99,,,-99.99,,2013-05-03 00:22:00,
2013-05-02 20:32:00,37.0,-99.9,-100.00,North,355,12.0,29.0,-999,-99.99,,,-99.99,,2013-05-03 00:32:00,
2013-05-02 20:40:00,36.0,-99.9,-100.00,North,5,17.0,31.0,-999,-99.99,,,-99.99,,2013-05-03 00:40:00,
2013-05-02 20:42:00,37.0,-99.9,-100.00,North,355,12.0,29.0,-999,-99.99,,,-99.99,,2013-05-03 00:42:00,
2013-05-02 20:52:00,37.0,-99.9,-100.00,North,355,12.0,29.0,-999,-99.99,,,-99.99,,2013-05-03 00:52:00,
2013-05-02 21:02:00,36.0,-99.9,-100.00,North,5,17.0,31.0,-999,-99.99,,,-99.99,,2013-05-03 01:02:00,
2013-05-02 21:11:00,36.0,-99.9,-100.00,North,5,17.0,31.0,-999,-99.99,,,-99.99,,2013-05-03 01:11:00,
2013-05-02 21:22:00,36.0,-99.9,-100.00,North,5,17.0,31.0,-999,-99.99,,,-99.99,,2013-05-03 01:22:00,
2013-05-02 21:32:00,36.0,-99.9,-100.00,North,5,17.0,31.0,-999,-99.99,,,-99.99,,2013-05-03 01:32:00,
2013-05-02 21:52:00,36.0,-99.9,-100.00,North,5,17.0,0.0,-999,-99.99,,,-99.99,,2013-05-03 01:52:00,
2013-05-02 22:02:00,36.0,-99.9,-100.00,North,351,11.0,19.0,-999,-99.99,,,-99.99,,2013-05-03 02:02:00,
2013-05-02 22:11:00,36.0,-99.9,-100.00,North,351,11.0,19.0,-999,-99.99,,,-99.99,,2013-05-03 02:11:00,
2013-05-02 22:22:00,36.0,-99.9,-100.00,North,351,11.0,19.0,-999,-99.99,,,-99.99,,2013-05-03 02:22:00,
2013-05-02 22:32:00,36.0,-99.9,-100.00,North,351,11.0,19.0,-999,-99.99,,,-99.99,,2013-05-03 02:32:00,
2013-05-02 22:42:00,36.0,-99.9,-100.00,North,351,11.0,19.0,-999,-99.99,,,-99.99,,2013-05-03 02:42:00,
2013-05-02 22:52:00,36.0,-99.9,-100.00,North,351,11.0,19.0,-999,-99.99,,,-99.99,,2013-05-03 02:52:00,
2013-05-02 23:01:00,36.0,-99.9,-100.00,North,356,13.0,22.0,-999,-99.99,,,-99.99,,2013-05-03 03:01:00,
2013-05-02 23:11:00,36.0,-99.9,-100.00,North,356,13.0,22.0,-999,-99.99,,,-99.99,,2013-05-03 03:11:00,
2013-05-02 23:22:00,36.0,-99.9,-100.00,North,356,13.0,22.0,-999,-99.99,,,-99.99,,2013-05-03 03:22:00,
2013-05-02 23:33:00,36.0,-99.9,-100.00,North,356,13.0,24.0,-999,-99.99,,,-99.99,,2013-05-03 03:33:00,
2013-05-02 23:43:00,36.0,-99.9,-100.00,North,356,13.0,24.0,-999,-99.99,,,-99.99,,2013-05-03 03:43:00,
2013-05-02 23:53:00,36.0,-99.9,-100.00,North,356,13.0,24.0,-999,-99.99,,,-99.99,,2013-05-03 03:53:00,